Location: Arrington
(35.8681°N, 86.7092°W)
Time: 07:39:55
(UTC+00:00)

Cosmos 1515 Rocket - Pass Details

Date: 23 November 2019
Orbit: 605 x 631 km, 82.5° (Epoch: 13 December)

Event Time Altitude Azimuth Distance (km) Brightness Sun altitude
Exits shadow 11:04:04 13° 344° (NNW) 1,785 5.6 -17.4°
Maximum altitude 11:07:53 58° 266° (W) 707 3.5 -16.7°
Drops below altitude 10° 11:12:08 10° 187° (S) 1,955 6.2 -15.9°
Sets 11:14:22 0° 184° (S) 2,858 7.1 -15.4°
